Tracking 18957 objects as of 23-Jan-2018
HD Live streaming from Space Station
objects crossing your sky now

FLOCK 3P 9

Track FLOCK 3P 9 now!
10-day predictions
FLOCK 3P 9 is classified as:


NORAD ID: 41973
Int'l Code: 2017-008AB
Perigee: 494.9 km
Apogee: 508.0 km
Inclination: 97.5 °
Period: 94.5 minutes
Semi major axis: 6872 km
RCS: Unknown
Launch date: February 15, 2017
Source: United States (US)
Launch site: SRIHARIKOTA (SRI)
aabbcc
Your satellite tracking list
Your tracking list is empty




NASA's NSSDC Master Catalog

Two Line Element Set (TLE):
1 41973U 17008AB  18022.86118391 +.00001900 +00000-0 +81779-4 0  9996
2 41973 097.4696 088.4643 0009535 135.6416 224.5586 15.23823395051894
Source of the keplerian elements: AFSPC